Weather History for Sedalia, MO

Change the Weather History Date:

Monday, January 21, 2013

  Actual Average Record
Temperature  
Mean Temperature 21 °F 32 °F  
Max Temperature 25 °F 40 °F 72 °F (1957)
Min Temperature 16 °F 23 °F -14 °F (1978)
Degree Days  
Heating Degree Days 44 33  
Month to date heating degree days 655 710  
Since 1 July heating degree days 2319 2491  
Cooling Degree Days 0 0  
Month to date cooling degree days 0 0  
Year to date cooling degree days 0 0  
Moisture  
Dew Point 6 °F    
Average Humidity 60    
Maximum Humidity 80    
Minimum Humidity 39    
Precipitation  
Precipitation 0.00 in 0.05 in 1.42 in (1959)
Month to date precipitation 0.48 1.09  
Year to date precipitation 0.48 1.09  
Sea Level Pressure  
Sea Level Pressure 30.43 in    
Wind  
Wind Speed 10 mph (NW)    
Max Wind Speed 20 mph    
Max Gust Speed 24 mph    
Visibility 10 miles    
Events      
T = Trace of Precipitation, MM = Missing Value Source: NWS Daily Summary

Daily Weather History Graph

Daily Weather History Graph

Search for Another Location

Airport:

Trip Planner

Search our weather history database for the weather conditions in past years. The results will help you decide how hot, cold, wet, or windy it might be!

Date:

Astronomy

Jan. 21, 2013 Rise Set
Actual Time 7:26 AM CST 5:22 PM CST
Civil Twilight 6:57 AM CST 5:50 PM CST
Nautical Twilight 6:25 AM CST 6:23 PM CST
Astronomical Twilight 5:53 AM CST 6:55 PM CST
Moon 1:02 PM CST 2:55 AM CST
Length of Visible Light 10h 53m
Length of Day
9h 55m
Waxing Gibbous, 75% of the Moon is Illuminated
Jan 21
Waxing Gibbous
Jan 26
Full
Feb 3
Last Quarter
Feb 10
New
Feb 17
First Quarter

Hourly Weather History & Observations

Time (CST) Temp. Windchill Dew Point Humidity Pressure Visibility Wind Dir Wind Speed Gust Speed Precip Events Conditions
12:53 AM 21.9 °F 11.0 °F 12.0 °F 66% 30.40 in 10.0 mi NNW 10.4 mph - N/A   Clear
1:53 AM 21.0 °F 7.6 °F 12.0 °F 68% 30.41 in 10.0 mi NNW 15.0 mph - N/A   Clear
2:53 AM 19.9 °F 9.3 °F 12.0 °F 71% 30.43 in 10.0 mi North 9.2 mph - N/A   Clear
3:53 AM 18.0 °F 11.1 °F 12.0 °F 78% 30.42 in 10.0 mi WNW 4.6 mph - N/A   Clear
4:53 AM 17.1 °F 8.7 °F 10.9 °F 77% 30.42 in 10.0 mi WNW 5.8 mph - N/A   Clear
5:53 AM 17.1 °F 8.7 °F 12.0 °F 81% 30.43 in 10.0 mi NW 5.8 mph - N/A   Clear
6:53 AM 16.0 °F 7.4 °F 10.9 °F 81% 30.43 in 10.0 mi NW 5.8 mph - N/A   Clear
7:53 AM 17.1 °F 6.6 °F 9.0 °F 71% 30.43 in 10.0 mi NW 8.1 mph - N/A   Clear
8:53 AM 19.0 °F 8.2 °F 10.0 °F 68% 30.45 in 10.0 mi WNW 9.2 mph - N/A   Clear
9:53 AM 19.9 °F 7.9 °F 10.9 °F 68% 30.45 in 10.0 mi NW 11.5 mph - N/A   Overcast
10:45 AM 21.2 °F 8.9 °F 10.4 °F 63% 30.42 in 10.0 mi NW 12.7 mph 19.6 mph N/A   Overcast
10:53 AM 21.9 °F 9.8 °F 8.1 °F 55% 30.46 in 10.0 mi NW 12.7 mph 19.6 mph N/A   Overcast
11:53 AM 21.9 °F 7.3 °F 3.9 °F 46% 30.45 in 10.0 mi NW 18.4 mph 23.0 mph N/A   Scattered Clouds
12:53 PM 24.1 °F 11.5 °F 3.9 °F 42% 30.43 in 10.0 mi NNW 15.0 mph 20.7 mph N/A   Clear
1:53 PM 21.0 °F 9.9 °F -0.0 °F 40% 30.41 in 10.0 mi NW 10.4 mph - N/A   Overcast
2:53 PM 23.0 °F 10.6 °F 3.0 °F 42% 30.43 in 10.0 mi NW 13.8 mph - N/A   Mostly Cloudy
3:53 PM 21.0 °F 10.6 °F 1.0 °F 42% 30.42 in 10.0 mi NNW 9.2 mph - N/A   Overcast
4:53 PM 21.0 °F 9.9 °F -0.0 °F 40% 30.42 in 10.0 mi NW 10.4 mph - N/A   Overcast
5:53 PM 19.0 °F 8.2 °F -0.9 °F 42% 30.42 in 10.0 mi NNW 9.2 mph - N/A   Overcast
6:53 PM 19.0 °F 10.0 °F -0.9 °F 42% 30.43 in 10.0 mi NNW 6.9 mph - N/A   Overcast
7:53 PM 18.0 °F 7.7 °F -0.0 °F 45% 30.42 in 10.0 mi North 8.1 mph - N/A   Overcast
8:53 PM 18.0 °F 6.9 °F 1.0 °F 48% 30.43 in 10.0 mi NNW 9.2 mph - N/A   Overcast
9:53 PM 18.0 °F 7.7 °F 1.0 °F 48% 30.43 in 10.0 mi North 8.1 mph - N/A   Overcast
10:53 PM 17.1 °F 7.6 °F -0.0 °F 47% 30.43 in 10.0 mi North 6.9 mph - N/A   Overcast
11:53 PM 18.0 °F 9.8 °F 1.0 °F 48% 30.42 in 10.0 mi North 5.8 mph - N/A   Overcast